Theta_e
325 322 318 316 309 308 307 308 313 314 312 313 310 307 306 306 307 307 307 307 306 305 304 306 307 307 306 306 307 308 308 309 311 309 309 314 317 317 317 314 314 311 313 315 315 321 329 321 323 328 327 330 332 335
324 321 319 312 309 308 306 309 315 313 314 312 309 307 307 306 307 307 306 306 306 305 305 305 306 308 309 309 307 308 308 309 309 309 307 311 313 315 319 318 316 320 315 322 324 323 317 318 318 320 324 328 328 330
323 320 316 310 309 307 306 309 315 312 314 311 310 307 307 307 307 306 305 305 305 305 304 307 309 309 309 309 309 309 307 307 309 308 310 311 314 312 317 315 315 312 313 316 319 318 317 318 317 317 319 326 325 323
322 317 310 309 308 307 306 309 315 312 314 311 310 306 307 306 306 306 306 305 304 305 305 307 308 309 309 309 309 309 309 307 309 311 310 312 312 310 315 315 315 313 314 315 317 316 315 317 318 319 317 318 325 324
318 312 310 309 308 307 306 309 315 313 315 311 310 306 306 306 307 308 308 308 305 305 304 305 309 308 310 310 309 310 310 310 308 311 311 311 309 310 311 312 314 313 312 313 315 313 314 315 317 319 320 317 318 325
315 315 310 309 308 306 306 309 315 313 315 311 310 307 307 307 308 308 309 308 307 305 305 304 309 310 310 311 311 310 311 310 309 311 311 309 311 311 310 311 311 313 313 313 313 313 314 317 316 319 320 321 319 324
316 315 309 309 308 306 306 310 315 314 315 310 310 308 307 308 308 308 307 306 306 305 306 308 308 310 309 310 311 312 313 313 313 313 313 311 313 311 309 310 308 309 311 312 312 313 313 313 313 317 318 320 321 321
318 311 309 308 307 306 307 313 314 314 315 310 310 309 308 309 309 310 308 305 306 307 307 309 307 310 310 311 311 312 313 312 312 313 310 311 310 310 309 309 308 309 310 311 312 312 312 313 313 315 317 320 320 320
312 309 309 308 307 306 312 315 314 314 313 309 309 309 310 310 310 311 309 306 306 307 308 310 303 306 310 311 312 312 311 309 311 309 309 309 309 311 309 309 308 308 310 310 312 313 314 313 313 314 316 319 318 319
311 309 308 308 307 310 315 314 314 314 310 309 310 310 311 312 311 309 307 308 308 307 308 309 310 309 310 311 311 311 311 307 310 309 311 308 311 310 309 309 308 308 309 310 311 312 313 314 313 314 316 317 317 318
309 308 308 307 307 315 315 315 314 313 309 311 312 312 313 312 310 310 310 310 311 309 310 311 311 310 311 308 308 310 308 308 308 311 310 311 309 310 310 310 309 310 308 310 311 312 313 313 313 315 316 317 318 318
308 309 308 307 313 315 316 315 314 312 312 313 314 313 312 310 310 311 312 314 312 316 312 312 311 311 310 311 312 310 310 310 312 310 311 310 310 309 309 308 310 310 309 310 310 311 310 311 312 313 314 317 318 319
309 309 308 313 316 316 316 315 313 314 313 314 314 314 312 312 312 316 313 310 311 317 314 312 310 311 311 311 311 308 311 314 311 310 311 312 309 309 307 307 309 310 308 308 308 308 308 309 309 310 312 316 316 318
309 308 309 316 317 316 316 315 313 313 313 315 316 321 319 321 320 319 318 319 319 318 315 313 311 312 311 312 311 312 310 307 309 309 311 311 309 308 307 306 309 309 307 307 306 307 307 307 306 308 310 312 314 315
309 308 316 319 318 317 317 316 314 313 314 317 315 316 319 318 319 317 316 316 317 315 316 315 313 313 312 312 309 310 311 311 309 308 309 311 308 307 307 305 307 309 307 306 304 304 304 304 305 306 307 307 309 311
309 312 320 319 319 319 317 316 315 315 317 316 315 318 318 318 317 316 315 314 314 316 316 317 316 314 312 312 313 310 309 310 306 311 311 309 307 306 307 304 305 308 309 306 306 304 303 303 302 301 303 306 307 307
309 323 317 313 318 318 317 317 316 317 320 317 318 317 316 315 314 315 314 314 314 316 315 316 316 317 315 314 314 311 310 310 312 311 307 304 304 306 305 303 305 306 310 308 307 306 305 305 304 303 302 301 301 302
308 307 308 313 317 319 317 318 320 321 320 319 316 315 314 315 316 316 314 314 314 315 315 313 311 310 311 311 309 307 308 310 306 304 304 303 303 305 303 303 303 304 306 308 308 307 307 306 305 304 303 301 301 300
308 309 316 314 315 320 322 320 321 320 319 316 315 315 315 314 313 313 313 315 315 314 314 311 308 307 305 307 306 305 305 306 303 302 302 302 303 303 303 303 304 305 307 308 308 306 306 306 306 306 303 303 302 301
312 318 319 319 319 319 322 321 320 319 318 317 315 315 314 314 313 312 312 313 312 312 310 307 306 307 306 305 305 305 305 304 303 302 302 302 303 303 304 304 303 304 304 304 304 304 303 301 301 304 305 302 303 301
322 322 323 321 321 321 322 321 320 320 317 317 315 314 314 314 313 312 311 310 310 311 309 308 306 305 304 304 304 304 304 304 302 302 302 302 302 302 302 302 301 301 301 301 301 302 302 301 301 301 303 302 301 302
325 326 323 324 323 323 322 321 321 320 318 317 316 316 316 316 314 312 311 311 310 310 309 307 305 304 303 302 303 302 303 302 302 302 301 301 301 301 301 300 301 300 299 299 299 299 300 300 300 300 301 301 301 301
322 324 323 323 323 322 319 321 320 321 319 318 318 317 316 315 314 312 313 309 311 310 309 308 307 306 304 302 302 302 302 302 301 301 300 300 300 300 299 299 299 299 298 298 298 298 299 299 299 299 300 301 300 301
324 324 325 324 323 318 316 314 316 315 317 317 318 318 317 316 314 309 304 300 305 308 309 309 308 305 303 302 301 302 301 300 300 300 300 299 299 298 298 298 298 297 296 297 297 297 297 297 298 298 299 300 300 300
324 322 320 319 319 320 320 318 314 315 320 316 317 313 313 314 310 305 304 300 303 303 302 303 303 305 305 303 301 300 300 300 300 300 299 299 298 298 297 297 298 297 296 297 297 297 297 296 297 298 298 299 299 300
315 316 318 319 318 319 319 320 318 318 318 317 317 316 314 312 307 308 304 303 303 304 305 305 304 303 303 302 300 300 299 299 299 299 298 298 298 297 297 296 297 296 297 297 297 297 297 297 297 297 298 298 299 299
320 319 319 317 316 317 319 319 317 317 319 318 316 316 313 310 309 306 306 304 304 304 304 304 305 303 301 300 299 299 299 299 299 298 298 298 297 297 297 298 298 297 297 298 298 298 298 297 297 298 298 298 299 299
321 320 320 317 317 317 317 318 317 315 315 315 314 312 311 309 308 306 306 305 304 306 305 305 305 302 303 300 299 299 298 297 297 298 298 298 298 298 298 298 298 298 298 298 298 298 298 298 298 298 298 299 299 299
321 318 317 319 320 319 316 314 313 311 311 314 311 309 308 306 306 305 307 306 305 305 305 304 305 300 299 299 299 299 298 298 297 296 297 297 298 298 298 298 297 298 298 298 298 298 298 299 298 298 299 298 298 298
320 321 317 317 317 314 313 312 310 308 308 308 306 306 306 306 306 306 307 307 307 301 300 301 300 299 299 298 299 299 298 297 296 296 297 297 297 297 297 297 297 298 298 298 298 298 298 298 297 298 298 298 298 298
316 316 317 316 315 312 309 307 305 305 305 305 305 305 306 306 307 307 307 304 301 301 300 300 299 299 299 299 299 299 297 296 296 296 296 296 296 297 297 297 298 298 298 297 297 297 297 297 297 297 297 297 297 297
317 317 317 316 314 312 312 311 308 307 307 307 307 306 306 306 306 306 305 304 301 300 300 299 299 300 300 300 299 298 297 298 298 298 298 298 298 297 298 298 298 297 297 297 297 297 297 297 297 297 297 298 298 297
319 317 316 316 316 315 312 312 312 311 311 309 309 308 306 304 305 305 305 301 302 300 300 300 300 300 300 299 299 299 298 298 298 298 299 299 299 299 299 299 299 299 298 298 298 298 298 298 298 298 298 297 297 297
Wind_Speed
21 12 12 17 21 24 29 30 22 16 15 14 10 6 3 2 1 1 1 2 5 4 13 4 2 7 12 7 2 8 6 5 2 2 2 3 3 4 3 5 3 4 3 3 2 2 4 27 15 7 7 12 20 25
17 12 13 18 20 25 28 27 19 13 13 9 8 4 2 2 1 1 2 2 3 9 10 18 11 3 7 9 14 4 5 2 7 2 2 2 2 4 6 3 7 5 4 2 4 4 16 15 12 21 24 19 21 21
14 12 13 16 20 24 26 25 15 11 12 5 6 3 4 2 2 2 2 3 3 5 10 4 2 10 10 7 7 7 6 13 2 5 4 1 2 4 4 5 6 10 8 2 2 13 21 19 32 34 30 17 20 22
10 10 14 16 19 23 25 24 14 10 10 2 3 2 4 4 5 7 4 3 0 2 3 6 7 6 7 8 14 16 20 20 3 7 6 3 3 9 4 4 4 4 9 7 4 16 28 27 41 39 33 25 12 17
8 11 14 16 19 22 25 23 14 9 8 1 0 3 5 6 4 2 3 3 4 2 3 10 7 6 9 8 9 12 18 17 10 3 3 2 1 1 4 3 7 8 4 4 2 11 9 20 32 35 28 25 22 8
8 11 14 17 20 23 24 21 12 8 6 4 3 4 6 5 1 1 2 2 1 2 3 3 8 11 15 8 8 8 12 15 1 9 3 7 10 4 3 3 12 15 11 8 5 18 15 13 18 30 31 30 21 3
10 13 16 18 21 23 25 20 10 7 4 6 6 5 7 5 2 0 0 2 1 3 2 5 7 9 14 11 9 11 16 10 8 7 4 2 3 6 2 4 18 17 10 7 15 20 10 24 23 27 27 27 22 21
10 13 16 19 22 25 26 16 6 5 2 8 7 5 5 2 2 2 2 0 5 1 3 2 4 6 10 7 6 12 8 16 17 6 8 5 5 5 3 10 16 22 16 12 19 13 12 20 20 19 22 22 24 23
10 13 16 20 23 26 21 7 4 4 3 9 8 5 3 4 2 2 4 2 5 3 3 3 3 2 4 5 4 4 6 4 6 7 5 5 2 3 2 10 18 20 20 21 19 14 17 18 22 18 19 18 22 24
11 13 16 20 23 23 8 2 3 1 8 10 7 3 3 3 3 4 2 3 5 3 3 4 3 2 3 3 4 2 5 1 3 2 3 3 2 1 2 13 16 15 19 25 22 22 23 23 22 23 23 22 19 20
11 14 18 20 22 9 3 3 2 6 12 7 3 3 4 3 2 2 2 4 4 3 5 4 3 1 6 3 0 4 2 3 3 3 3 2 4 9 8 9 15 15 10 18 14 10 12 15 16 17 16 16 16 16
11 15 18 21 12 2 5 4 3 11 6 3 1 2 2 2 2 2 3 2 3 2 6 4 3 1 1 2 1 1 3 2 2 2 2 2 3 8 10 14 13 15 16 15 14 12 12 12 12 12 13 17 17 16
12 15 18 14 1 6 6 3 7 8 5 3 2 3 3 3 2 3 2 3 2 6 9 7 3 1 2 1 1 2 3 2 7 2 3 2 3 6 9 12 13 14 14 20 21 19 18 15 13 13 10 11 12 14
12 15 15 3 6 5 4 3 11 8 5 4 4 3 3 3 4 0 2 2 4 5 16 13 6 3 0 2 2 3 2 3 3 2 1 2 7 7 8 10 11 10 17 19 20 21 25 25 24 22 17 15 13 15
12 14 3 6 6 3 3 3 11 10 3 3 2 3 3 1 3 7 8 12 3 8 15 7 6 4 2 2 2 3 3 2 2 2 2 7 6 6 7 10 12 8 13 16 20 24 25 28 30 31 30 26 23 20
11 7 2 7 7 5 3 5 12 7 3 3 3 3 7 3 5 4 7 5 4 7 14 6 4 4 0 1 2 2 4 2 3 3 8 8 5 7 7 10 10 8 9 12 16 18 22 27 31 29 26 27 30 30
9 1 7 9 7 3 9 10 7 5 4 3 4 1 2 4 5 5 1 5 5 9 3 1 1 2 5 0 2 2 2 2 6 16 11 7 7 7 7 10 9 7 2 5 10 15 14 18 22 26 31 32 28 26
10 10 8 6 4 1 6 6 4 4 5 5 4 4 3 3 3 5 5 7 5 2 3 3 3 3 3 3 2 2 17 19 17 12 9 8 10 7 11 11 12 14 9 3 10 9 9 10 15 18 21 24 27 32
12 14 6 7 7 2 3 4 5 3 4 7 6 4 1 2 3 7 7 5 5 5 2 3 4 3 2 5 12 14 15 13 15 13 10 10 13 8 10 14 14 14 17 11 13 15 15 18 16 13 15 17 21 25
8 5 4 6 8 4 4 4 5 3 7 6 6 5 2 2 4 9 15 5 3 5 8 4 3 9 13 15 12 13 13 13 9 13 12 13 11 13 16 18 20 19 21 18 15 13 17 25 25 13 11 16 16 18
2 3 3 4 6 10 5 5 6 3 6 5 11 10 4 3 1 6 14 13 12 4 5 9 18 15 13 11 10 12 11 7 9 9 9 11 14 13 15 17 18 19 19 19 18 15 15 19 20 23 13 11 15 11
4 3 3 5 5 4 5 6 5 8 6 7 11 7 4 4 2 0 1 5 4 10 13 22 21 19 16 14 11 11 10 16 11 8 9 8 11 12 13 14 13 12 13 15 15 15 15 15 17 16 17 17 20 12
1 2 3 3 4 4 2 6 2 1 3 5 5 2 1 4 6 9 3 16 10 5 16 18 20 18 18 14 12 12 12 8 10 9 10 12 13 12 11 12 12 12 13 13 13 13 13 13 14 17 11 14 16 19
1 2 3 3 3 1 11 11 6 7 5 2 1 1 4 9 9 9 4 12 19 16 15 15 22 20 15 14 16 13 12 10 12 12 11 10 12 11 10 10 11 11 13 11 12 13 15 17 16 15 16 18 14 19
2 2 5 7 11 7 4 3 1 2 2 4 3 3 1 4 3 3 3 9 18 30 30 30 22 6 5 8 9 8 8 7 9 9 8 5 7 8 12 13 10 11 11 11 14 14 17 17 16 16 13 14 16 14
5 4 2 0 3 2 3 1 0 1 1 3 2 6 4 5 4 3 1 5 14 12 11 12 6 4 5 4 9 10 9 7 9 7 9 9 8 9 10 12 15 14 15 11 12 16 14 16 16 17 12 11 14 14
4 4 3 5 3 4 2 1 1 2 3 3 2 4 3 4 3 2 3 6 2 5 8 9 13 13 18 19 18 14 11 13 15 9 8 8 9 9 8 10 12 12 10 12 13 16 12 13 15 16 15 9 8 9
8 2 6 3 2 1 4 3 3 6 6 8 5 5 3 3 2 4 3 6 4 7 6 7 10 6 5 10 7 6 9 13 5 8 10 10 11 10 12 12 10 9 10 14 13 13 11 13 14 16 13 13 14 10
3 5 4 4 5 6 9 6 9 8 9 4 4 3 4 5 14 13 11 11 10 10 10 4 17 15 11 9 8 9 10 13 16 6 11 12 11 13 12 11 14 11 10 11 13 11 11 10 13 14 13 16 13 12
2 4 9 10 6 5 10 10 12 17 17 17 15 20 22 18 14 12 9 8 10 14 19 17 13 12 10 11 11 10 13 17 13 9 10 10 10 10 12 12 14 13 12 13 12 11 11 13 13 10 10 10 12 13
11 8 5 8 7 16 21 23 23 24 25 25 24 26 19 15 13 11 11 13 16 11 9 11 12 9 9 8 7 10 14 16 16 13 9 9 9 10 13 13 12 14 14 12 12 13 14 13 13 15 15 15 14 14
10 10 11 6 9 15 13 12 16 20 20 20 16 18 15 10 4 4 6 7 10 9 8 8 11 11 7 7 9 10 11 15 17 15 13 14 13 14 16 21 20 16 15 16 14 14 15 17 19 20 21 20 18 16
12 15 16 13 9 7 14 11 9 8 7 9 11 14 12 9 3 7 8 6 2 5 9 10 8 7 8 9 10 11 11 12 12 13 13 14 15 15 15 16 17 20 19 17 17 17 17 18 18 19 21 21 20 17
Wind_Direction
320 303 306 324 328 333 338 340 341 340 339 350 356 3 40 59 101 140 263 223 246 262 296 276 223 266 300 289 236 301 335 331 333 291 200 240 238 329 5 2 28 121 120 191 144 158 11 346 10 62 300 22 36 34
316 296 307 320 327 334 338 342 341 337 342 356 6 23 90 122 115 204 235 260 268 261 272 296 286 289 294 305 268 286 259 193 228 329 274 271 293 359 337 55 352 61 16 337 52 61 309 334 30 40 45 49 41 43
303 292 309 322 329 335 340 343 338 332 340 356 8 46 100 115 145 161 358 329 301 299 310 318 11 335 315 336 263 245 296 312 117 43 286 207 61 352 21 33 5 354 357 31 98 350 337 1 14 20 31 41 49 44
281 296 315 323 330 335 341 344 335 328 337 341 14 95 120 112 102 107 81 52 274 331 299 290 318 316 357 298 295 282 273 295 329 37 39 359 27 358 22 51 54 344 332 324 71 14 349 2 353 348 349 18 26 43
267 304 315 324 331 336 340 343 330 320 330 204 107 141 136 129 106 122 209 336 28 314 286 296 318 321 358 351 313 296 298 281 281 85 45 43 304 4 355 31 38 12 4 11 33 357 322 293 330 348 350 352 10 41
264 304 318 325 330 334 338 338 322 308 322 196 190 159 155 144 149 263 280 237 206 203 307 309 312 336 355 341 328 344 340 306 285 81 50 18 29 53 49 46 355 2 6 11 331 333 327 329 323 7 8 355 359 99
263 305 319 324 328 332 335 333 312 301 306 192 188 168 180 183 174 165 241 323 154 112 283 302 299 328 336 6 25 9 53 37 64 111 98 145 62 61 47 33 343 355 7 8 1 350 359 343 338 348 5 10 24 58
271 304 316 323 328 333 332 326 293 297 263 188 180 164 163 191 264 293 340 207 178 222 247 272 282 337 352 353 1 6 28 57 33 63 72 43 61 48 47 351 351 9 20 20 1 359 346 337 338 339 356 9 16 21
288 309 317 324 329 332 330 315 273 293 195 177 170 168 226 253 259 277 328 159 182 238 276 269 145 261 335 359 8 14 13 50 60 33 44 68 41 70 337 4 10 21 19 5 7 6 352 356 348 351 352 359 355 352
299 310 319 326 332 333 334 289 289 208 161 161 160 202 249 232 286 278 197 190 202 205 240 253 281 273 317 356 37 70 15 54 79 328 28 49 41 281 91 30 11 4 11 5 359 2 1 352 356 355 0 353 337 328
304 315 324 327 331 333 329 295 261 159 158 168 196 232 246 234 241 237 247 205 176 227 207 223 259 315 19 84 56 37 108 359 69 341 72 44 350 346 34 6 19 5 328 0 11 17 1 343 350 352 355 342 341 340
311 321 325 329 329 297 315 288 220 168 160 163 272 262 232 234 254 260 216 194 188 229 173 184 211 235 348 339 130 111 97 94 99 118 85 91 282 36 37 31 35 25 27 18 25 27 7 7 355 350 341 358 1 360
315 321 330 336 319 311 305 284 169 164 155 190 234 233 194 182 268 221 243 300 283 181 174 167 130 187 239 235 139 123 90 81 134 101 130 109 134 58 46 39 26 25 48 47 51 43 36 34 19 6 5 7 0 355
316 328 338 355 334 311 308 255 197 166 169 203 213 37 255 175 244 223 207 200 221 203 176 165 136 138 313 13 10 81 68 64 91 94 137 157 106 69 41 42 31 32 27 36 41 44 42 40 38 32 31 18 11 15
320 329 340 0 335 299 315 231 186 177 176 249 206 233 236 205 252 72 93 66 102 152 172 144 101 74 351 69 68 82 48 67 141 178 198 149 112 82 60 40 27 24 23 44 49 53 52 48 45 43 42 40 34 26
330 342 71 346 350 340 266 193 165 167 238 234 244 285 325 3 37 53 56 53 50 193 213 261 136 146 139 218 133 107 126 187 245 196 152 132 80 63 40 35 30 5 9 42 40 43 51 51 48 46 42 39 36 33
347 7 316 326 355 71 142 141 169 208 225 219 248 247 54 55 27 8 165 61 1 167 161 36 204 119 149 349 75 111 146 179 131 120 115 89 74 53 24 24 25 2 279 30 33 31 38 42 39 40 45 46 42 38
330 322 307 307 341 151 193 201 222 235 236 233 123 149 101 344 328 330 299 268 339 6 167 206 91 62 103 94 57 53 86 114 101 113 102 64 39 53 26 18 11 359 338 7 32 30 5 12 26 34 37 39 38 38
320 304 290 246 250 221 248 221 211 247 163 145 155 157 117 273 317 351 318 295 292 336 339 39 57 60 57 90 119 94 75 85 106 85 73 54 42 53 17 11 33 43 53 28 18 14 2 1 357 7 22 24 29 32
301 259 220 227 213 220 234 212 211 221 175 167 149 146 68 353 3 13 40 184 113 57 44 37 58 116 118 113 110 111 86 80 85 50 57 33 48 31 33 65 66 63 63 74 63 40 28 35 28 6 357 15 13 21
267 181 260 232 222 227 247 203 197 203 155 150 159 161 164 235 36 33 67 81 82 71 87 123 116 112 107 94 101 111 69 75 91 82 63 47 60 60 67 64 59 56 45 38 36 34 26 19 19 20 10 357 9 356
214 240 281 241 249 234 253 207 196 170 166 165 169 192 193 181 166 344 60 84 88 128 141 139 131 119 102 101 111 75 73 125 81 77 56 73 56 55 48 35 19 22 31 23 18 20 17 8 4 7 19 16 18 11
299 321 272 275 268 249 254 183 5 191 78 183 176 212 142 136 173 156 83 22 31 117 145 150 140 128 107 104 90 78 82 119 84 81 55 98 84 74 51 29 15 7 360 1 8 7 2 8 10 13 11 355 1 16
13 255 248 244 242 32 61 11 324 330 89 226 12 94 25 10 41 53 60 350 13 73 102 139 155 134 109 92 78 79 80 70 66 67 76 77 72 59 37 23 9 6 7 0 13 13 14 11 5 11 20 12 1 15
296 7 345 9 2 2 123 180 99 330 22 23 355 68 83 64 76 66 46 354 60 70 75 81 89 97 116 105 96 101 75 67 70 77 68 60 62 36 17 11 351 357 359 5 11 3 5 10 7 11 11 11 14 27
83 358 103 154 295 47 1 18 14 70 129 190 127 128 85 73 65 64 122 147 125 98 38 26 103 122 148 130 96 88 78 68 58 68 68 45 47 35 20 15 9 15 8 359 346 342 347 358 359 352 358 1 352 7
87 278 234 230 299 357 306 249 269 259 246 134 179 127 86 79 86 128 167 190 228 357 19 25 41 72 94 94 99 95 85 70 69 72 55 54 53 53 41 23 9 358 350 359 354 339 331 338 335 341 340 321 322 343
64 148 224 151 115 250 36 342 30 1 350 355 68 43 67 66 106 145 167 150 51 23 41 69 68 96 119 135 115 74 43 28 29 76 72 47 17 13 35 21 7 6 350 356 2 350 354 352 351 351 349 348 341 330
93 254 48 49 72 53 30 45 15 354 337 31 77 85 93 96 135 129 94 84 70 33 2 77 143 137 103 79 49 19 18 23 26 55 50 41 34 27 18 12 6 5 8 356 347 351 10 359 352 352 356 356 353 345
206 331 22 21 36 43 37 71 64 65 72 96 106 116 115 119 120 109 90 43 21 92 102 108 120 126 117 107 92 66 37 18 24 49 55 41 17 8 18 8 359 5 8 356 12 12 8 359 352 352 356 351 350 347
120 106 85 75 75 93 95 90 84 87 96 105 120 118 113 108 101 86 70 69 111 101 99 96 96 98 96 89 55 36 42 52 47 54 58 56 47 18 16 16 13 13 15 17 359 354 356 1 5 6 4 359 357 354
143 161 125 120 128 129 116 98 100 111 116 114 118 117 112 109 95 119 90 121 113 94 92 97 104 105 81 52 53 63 68 50 44 41 43 49 51 49 49 39 39 39 36 34 31 35 37 29 20 12 7 4 358 354
147 129 117 108 141 143 143 128 127 120 121 143 155 148 118 122 129 134 123 157 88 106 114 115 106 91 74 73 63 57 49 37 27 20 22 27 31 27 16 12 19 27 24 19 17 22 20 19 19 16 15 14 14 13